User: anonymous   Login
Location: Izdebno
(52.6670°N, 16.2170°E)
Time: 12:15:55
(UTC+01:00)
Language:

Tiros 1 - Orbit

View from above orbital plane
View from above orbital plane
View from above satellite
View from above satellite

Ground track
Ground track

The orbit data is extracted from the following two-line orbital elements,

1 00029U 60002B   24053.93243769  .00001030  00000-0  17740-3 0  9992
2 00029  48.3791  74.3897 0023816 234.6151 125.2536 14.76022328417130
Epoch (UTC): 22 February 2024 22:22:42
Eccentricity: 0.0023816
inclination: 48.3791°
perigee height: 625 km
apogee height: 658 km
right ascension of ascending node: 74.3897°
argument of perigee: 234.6151°
revolutions per day: 14.76022328
mean anomaly at epoch: 125.2536°
orbit number at epoch: 41713

The dashed part of the orbit path shows where the satellite is in the earth's shadow,  

DLR